Tracking 20712 objects as of 29-May-2020
HD Live streaming from Space Station
objects crossing your sky now

FENGYUN 1C DEB

Track FENGYUN 1C DEB now!
10-day predictions


NORAD ID: 32173
Int'l Code: 1999-025CTT
Perigee: 766.7 km
Apogee: 874.8 km
Inclination: 99.6 °
Period: 101.2 minutes
Semi major axis: 7191 km
RCS: 0.009 m2 (small)
Launch date: May 10, 1999
Source: People's Republic of China (PRC)
Launch site: Taiyaun Space Center, China (TSC)

Note: This is SATELLITE DEBRIS
aabbcc
Your satellite tracking list
Your tracking list is empty




NASA's NSSDC Master Catalog

Two Line Element Set (TLE):
1 32173U 99025CTT 20150.03051636  .00000859  00000-0  38904-3 0  9992
2 32173  99.5831 221.5739 0075165 147.2032 213.3842 14.23479665665619
Source of the keplerian elements: AFSPC